Time,TemperatureF,DewpointF,PressureIn,WindDirection,WindDirectionDegrees,WindSpeedMPH,WindSpeedGustMPH,Humidity,HourlyPrecipIn,Conditions,Clouds,dailyrainin,SoftwareType,DateUTC
2013-01-10 00:00:00,50.5,34.5,27.85,SSW,209,0.0,0.0,54,0.00,,---,0.00,VWS V14.01,2013-01-10 05:00:00,
2013-01-10 00:05:00,50.9,35.3,27.85,SSW,209,0.0,0.0,55,0.00,,---,0.00,VWS V14.01,2013-01-10 05:05:00,
2013-01-10 00:10:00,51.1,35.5,27.85,SSW,209,0.0,0.0,55,0.00,,---,0.00,VWS V14.01,2013-01-10 05:10:00,
2013-01-10 00:15:00,50.9,34.9,27.85,SSW,209,0.0,0.0,54,0.00,,---,0.00,VWS V14.01,2013-01-10 05:15:00,
2013-01-10 00:20:00,50.5,34.5,27.85,SW,232,0.0,0.0,54,0.00,,---,0.00,VWS V14.01,2013-01-10 05:20:00,
2013-01-10 00:25:00,50.7,35.6,27.85,WSW,256,0.0,0.0,56,0.00,,---,0.00,VWS V14.01,2013-01-10 05:25:00,
2013-01-10 00:30:00,51.3,36.6,27.85,WSW,256,0.0,0.0,57,0.00,,---,0.00,VWS V14.01,2013-01-10 05:30:00,
2013-01-10 00:35:00,51.4,36.3,27.85,West,267,0.0,0.0,56,0.00,,---,0.00,VWS V14.01,2013-01-10 05:35:00,
2013-01-10 00:40:00,51.3,35.7,27.85,West,267,0.0,0.0,55,0.00,,---,0.00,VWS V14.01,2013-01-10 05:40:00,
2013-01-10 00:45:00,51.4,36.7,27.85,West,267,0.0,0.0,57,0.00,,---,0.00,VWS V14.01,2013-01-10 05:45:00,
2013-01-10 00:50:00,51.8,37.1,27.85,West,262,0.0,0.0,57,0.00,,---,0.00,VWS V14.01,2013-01-10 05:50:00,
2013-01-10 00:55:00,51.6,36.5,27.85,West,262,0.0,0.0,56,0.00,,---,0.00,VWS V14.01,2013-01-10 05:55:00,
2013-01-10 01:00:00,51.4,36.3,27.85,West,262,0.0,0.0,56,0.00,,---,0.00,VWS V14.01,2013-01-10 06:00:00,
2013-01-10 01:05:00,51.6,37.3,27.85,West,262,0.0,0.0,58,0.00,,---,0.00,VWS V14.01,2013-01-10 06:05:00,
2013-01-10 01:10:00,52.2,38.3,27.85,West,268,2.2,2.2,59,0.00,,---,0.00,VWS V14.01,2013-01-10 06:10:00,
2013-01-10 01:16:00,52.5,38.6,27.85,West,268,0.0,0.0,59,0.00,,---,0.00,VWS V14.01,2013-01-10 06:16:00,
2013-01-10 01:21:00,52.3,38.0,27.85,West,268,0.0,0.0,58,0.00,,---,0.00,VWS V14.01,2013-01-10 06:21:00,
2013-01-10 01:26:00,52.2,37.4,27.85,West,268,0.0,0.0,57,0.00,,---,0.00,VWS V14.01,2013-01-10 06:26:00,
2013-01-10 01:31:00,52.0,37.7,27.85,West,268,0.0,0.0,58,0.00,,---,0.00,VWS V14.01,2013-01-10 06:31:00,
2013-01-10 01:36:00,51.8,37.1,27.85,West,269,0.0,0.0,57,0.00,,---,0.00,VWS V14.01,2013-01-10 06:36:00,
2013-01-10 01:41:00,51.4,36.7,27.85,West,268,0.0,0.0,57,0.00,,---,0.00,VWS V14.01,2013-01-10 06:41:00,
2013-01-10 01:46:00,50.9,36.2,27.85,WNW,285,0.0,0.0,57,0.00,,---,0.00,VWS V14.01,2013-01-10 06:46:00,
2013-01-10 01:51:00,50.5,35.9,27.85,WNW,285,0.0,0.0,57,0.00,,---,0.00,VWS V14.01,2013-01-10 06:51:00,
2013-01-10 01:56:00,50.4,35.7,27.85,WNW,285,0.0,0.0,57,0.00,,---,0.00,VWS V14.01,2013-01-10 06:56:00,
2013-01-10 02:01:00,50.2,35.5,27.85,WNW,285,0.0,0.0,57,0.00,,---,0.00,VWS V14.01,2013-01-10 07:01:00,
2013-01-10 02:06:00,49.8,35.7,27.85,WNW,285,0.0,0.0,58,0.00,,---,0.00,VWS V14.01,2013-01-10 07:06:00,
2013-01-10 02:11:00,49.6,35.5,27.85,WNW,285,0.0,0.0,58,0.00,,---,0.00,VWS V14.01,2013-01-10 07:11:00,
2013-01-10 02:16:00,49.5,35.3,27.85,WNW,285,0.0,0.0,58,0.00,,---,0.00,VWS V14.01,2013-01-10 07:16:00,
2013-01-10 02:21:00,49.3,35.1,27.85,WNW,285,0.0,0.0,58,0.00,,---,0.00,VWS V14.01,2013-01-10 07:21:00,
2013-01-10 02:26:00,49.3,35.1,27.85,WNW,285,0.0,0.0,58,0.00,,---,0.00,VWS V14.01,2013-01-10 07:26:00,
2013-01-10 02:31:00,49.1,35.0,27.85,WNW,285,0.0,0.0,58,0.00,,---,0.00,VWS V14.01,2013-01-10 07:31:00,
2013-01-10 02:36:00,48.9,35.2,27.85,WNW,285,0.0,0.0,59,0.00,,---,0.00,VWS V14.01,2013-01-10 07:36:00,
2013-01-10 02:41:00,48.9,35.2,27.85,WNW,285,0.0,0.0,59,0.00,,---,0.00,VWS V14.01,2013-01-10 07:41:00,
2013-01-10 02:46:00,49.1,35.4,27.85,WNW,285,0.0,0.0,59,0.00,,---,0.00,VWS V14.01,2013-01-10 07:46:00,
2013-01-10 02:51:00,48.9,35.2,27.85,WNW,285,0.0,0.0,59,0.00,,---,0.00,VWS V14.01,2013-01-10 07:51:00,
2013-01-10 02:56:00,49.1,35.8,27.85,WNW,285,0.0,0.0,60,0.00,,---,0.00,VWS V14.01,2013-01-10 07:56:00,
2013-01-10 03:01:00,49.1,35.8,27.85,WNW,285,0.0,0.0,60,0.00,,---,0.00,VWS V14.01,2013-01-10 08:01:00,
2013-01-10 03:06:00,48.9,35.2,27.85,WNW,285,0.0,0.0,59,0.00,,---,0.00,VWS V14.01,2013-01-10 08:06:00,
2013-01-10 03:11:00,48.9,35.7,27.85,WNW,285,0.0,0.0,60,0.00,,---,0.00,VWS V14.01,2013-01-10 08:11:00,
2013-01-10 03:16:00,49.3,36.4,27.85,WNW,285,0.0,0.0,61,0.00,,---,0.00,VWS V14.01,2013-01-10 08:16:00,
2013-01-10 03:20:00,49.3,36.4,27.85,WNW,285,0.0,0.0,61,0.00,,---,0.00,VWS V14.01,2013-01-10 08:20:00,
2013-01-10 03:25:00,49.3,36.4,27.85,WNW,285,0.0,0.0,61,0.00,,---,0.00,VWS V14.01,2013-01-10 08:25:00,
2013-01-10 03:30:00,49.1,36.2,27.85,WNW,285,0.0,0.0,61,0.00,,---,0.00,VWS V14.01,2013-01-10 08:30:00,
2013-01-10 03:35:00,49.3,36.4,27.85,WNW,285,0.0,0.0,61,0.00,,---,0.00,VWS V14.01,2013-01-10 08:35:00,
2013-01-10 03:40:00,49.3,36.8,27.85,WNW,285,0.0,0.0,62,0.00,,---,0.00,VWS V14.01,2013-01-10 08:40:00,
2013-01-10 03:45:00,49.3,36.8,27.85,WNW,285,0.0,0.0,62,0.00,,---,0.00,VWS V14.01,2013-01-10 08:45:00,
2013-01-10 03:50:00,49.6,37.6,27.85,WNW,285,0.0,0.0,63,0.00,,---,0.00,VWS V14.01,2013-01-10 08:50:00,
2013-01-10 03:55:00,49.8,37.8,27.85,WNW,285,0.0,0.0,63,0.00,,---,0.00,VWS V14.01,2013-01-10 08:55:00,
2013-01-10 04:00:00,50.0,37.9,27.85,WNW,285,0.0,0.0,63,0.00,,---,0.00,VWS V14.01,2013-01-10 09:00:00,
2013-01-10 04:05:00,50.2,38.1,27.85,WNW,285,0.0,0.0,63,0.00,,---,0.00,VWS V14.01,2013-01-10 09:05:00,
2013-01-10 04:10:00,50.2,38.1,27.85,WNW,285,0.0,0.0,63,0.00,,---,0.00,VWS V14.01,2013-01-10 09:10:00,
2013-01-10 04:15:00,50.2,38.1,27.85,WNW,285,0.0,0.0,63,0.00,,---,0.00,VWS V14.01,2013-01-10 09:15:00,
2013-01-10 04:20:00,50.2,38.1,27.85,WNW,285,0.0,0.0,63,0.00,,---,0.00,VWS V14.01,2013-01-10 09:20:00,
2013-01-10 04:25:00,50.4,38.7,27.85,WNW,285,0.0,0.0,64,0.00,,---,0.00,VWS V14.01,2013-01-10 09:25:00,
2013-01-10 04:30:00,50.5,39.2,27.85,WNW,285,0.0,0.0,65,0.00,,---,0.00,VWS V14.01,2013-01-10 09:30:00,
2013-01-10 04:35:00,50.5,38.8,27.85,WNW,285,0.0,0.0,64,0.00,,---,0.00,VWS V14.01,2013-01-10 09:35:00,
2013-01-10 04:40:00,50.5,38.8,27.85,WNW,285,0.0,0.0,64,0.00,,---,0.00,VWS V14.01,2013-01-10 09:40:00,
2013-01-10 04:45:00,50.4,38.7,27.85,WNW,285,0.0,0.0,64,0.00,,---,0.00,VWS V14.01,2013-01-10 09:45:00,
2013-01-10 04:50:00,50.4,38.7,27.85,WNW,285,0.0,0.0,64,0.00,,---,0.00,VWS V14.01,2013-01-10 09:50:00,
2013-01-10 04:55:00,50.4,39.1,27.85,WNW,285,0.0,0.0,65,0.00,,---,0.00,VWS V14.01,2013-01-10 09:55:00,
2013-01-10 05:00:00,50.4,39.1,27.85,WNW,285,0.0,0.0,65,0.00,,---,0.00,VWS V14.01,2013-01-10 10:00:00,
2013-01-10 05:05:00,50.2,38.5,27.85,WNW,285,0.0,0.0,64,0.00,,---,0.00,VWS V14.01,2013-01-10 10:05:00,
2013-01-10 05:10:00,50.2,38.5,27.85,WNW,285,0.0,0.0,64,0.00,,---,0.00,VWS V14.01,2013-01-10 10:10:00,
2013-01-10 05:15:00,50.0,38.3,27.85,WNW,285,0.0,0.0,64,0.00,,---,0.00,VWS V14.01,2013-01-10 10:15:00,
2013-01-10 05:20:00,49.5,37.8,27.82,WNW,285,0.0,0.0,64,0.00,,---,0.00,VWS V14.01,2013-01-10 10:20:00,
2013-01-10 05:25:00,49.3,37.6,27.82,WNW,285,0.0,0.0,64,0.00,,---,0.00,VWS V14.01,2013-01-10 10:25:00,
2013-01-10 05:30:00,48.9,37.3,27.82,WNW,285,0.0,0.0,64,0.00,,---,0.00,VWS V14.01,2013-01-10 10:30:00,
2013-01-10 05:35:00,48.7,37.1,27.85,WNW,285,0.0,0.0,64,0.00,,---,0.00,VWS V14.01,2013-01-10 10:35:00,
2013-01-10 05:40:00,48.7,37.1,27.85,WNW,285,0.0,0.0,64,0.00,,---,0.00,VWS V14.01,2013-01-10 10:40:00,
2013-01-10 05:45:00,48.6,37.3,27.85,WNW,285,0.0,0.0,65,0.00,,---,0.00,VWS V14.01,2013-01-10 10:45:00,
2013-01-10 05:50:00,48.6,37.3,27.85,WNW,285,0.0,0.0,65,0.00,,---,0.00,VWS V14.01,2013-01-10 10:50:00,
2013-01-10 05:55:00,48.6,37.7,27.85,WNW,285,0.0,0.0,66,0.00,,---,0.00,VWS V14.01,2013-01-10 10:55:00,
2013-01-10 06:00:00,48.6,37.7,27.85,WNW,285,0.0,0.0,66,0.00,,---,0.00,VWS V14.01,2013-01-10 11:00:00,
2013-01-10 06:05:00,48.6,37.7,27.85,WNW,285,0.0,0.0,66,0.00,,---,0.00,VWS V14.01,2013-01-10 11:05:00,
2013-01-10 06:10:00,48.6,37.7,27.85,WNW,285,0.0,0.0,66,0.00,,---,0.00,VWS V14.01,2013-01-10 11:10:00,
2013-01-10 06:15:00,48.7,38.3,27.85,WNW,285,0.0,0.0,67,0.00,,---,0.00,VWS V14.01,2013-01-10 11:15:00,
2013-01-10 06:20:00,48.7,38.3,27.85,WNW,285,0.0,0.0,67,0.00,,---,0.00,VWS V14.01,2013-01-10 11:20:00,
2013-01-10 06:25:00,48.7,38.3,27.85,WNW,285,0.0,0.0,67,0.00,,---,0.00,VWS V14.01,2013-01-10 11:25:00,
2013-01-10 06:30:00,48.7,38.3,27.85,WNW,285,0.0,0.0,67,0.00,,---,0.00,VWS V14.01,2013-01-10 11:30:00,
2013-01-10 06:35:00,48.7,38.3,27.85,WNW,285,0.0,0.0,67,0.00,,---,0.00,VWS V14.01,2013-01-10 11:35:00,
2013-01-10 06:40:00,48.7,38.3,27.85,WNW,285,0.0,0.0,67,0.00,,---,0.00,VWS V14.01,2013-01-10 11:40:00,
2013-01-10 06:45:00,48.7,38.7,27.85,WNW,285,0.0,0.0,68,0.00,,---,0.00,VWS V14.01,2013-01-10 11:45:00,
2013-01-10 06:50:00,48.9,38.8,27.85,WNW,285,0.0,0.0,68,0.00,,---,0.00,VWS V14.01,2013-01-10 11:50:00,
2013-01-10 06:55:00,48.9,38.8,27.85,WNW,285,0.0,0.0,68,0.00,,---,0.00,VWS V14.01,2013-01-10 11:55:00,
2013-01-10 07:00:00,48.9,38.8,27.85,WNW,285,0.0,0.0,68,0.00,,---,0.00,VWS V14.01,2013-01-10 12:00:00,
2013-01-10 07:05:00,49.3,39.5,27.85,WNW,285,0.0,0.0,69,0.00,,---,0.00,VWS V14.01,2013-01-10 12:05:00,
2013-01-10 07:10:00,49.3,39.5,27.85,WNW,285,0.0,0.0,69,0.00,,---,0.00,VWS V14.01,2013-01-10 12:10:00,
2013-01-10 07:15:00,49.3,39.5,27.85,WNW,285,0.0,0.0,69,0.00,,---,0.00,VWS V14.01,2013-01-10 12:15:00,
2013-01-10 07:20:00,49.5,39.7,27.85,WNW,285,0.0,0.0,69,0.00,,---,0.00,VWS V14.01,2013-01-10 12:20:00,
2013-01-10 07:25:00,49.5,39.7,27.85,WNW,285,0.0,0.0,69,0.00,,---,0.00,VWS V14.01,2013-01-10 12:25:00,
2013-01-10 07:30:00,49.5,39.7,27.85,WNW,285,0.0,0.0,69,0.00,,---,0.00,VWS V14.01,2013-01-10 12:30:00,
2013-01-10 07:35:00,49.5,39.7,27.85,WNW,285,0.0,0.0,69,0.00,,---,0.00,VWS V14.01,2013-01-10 12:35:00,
2013-01-10 07:40:00,49.5,39.7,27.85,WNW,285,0.0,0.0,69,0.00,,---,0.00,VWS V14.01,2013-01-10 12:40:00,
2013-01-10 07:45:00,49.5,39.7,27.85,WNW,285,0.0,0.0,69,0.00,,---,0.00,VWS V14.01,2013-01-10 12:45:00,
2013-01-10 07:50:00,49.5,39.7,27.85,WNW,285,0.0,0.0,69,0.00,,---,0.00,VWS V14.01,2013-01-10 12:50:00,
2013-01-10 07:55:00,49.5,39.7,27.85,WNW,285,0.0,0.0,69,0.00,,---,0.00,VWS V14.01,2013-01-10 12:55:00,
2013-01-10 08:00:00,49.5,40.1,27.85,WNW,285,0.0,0.0,70,0.00,,---,0.00,VWS V14.01,2013-01-10 13:00:00,
2013-01-10 08:05:00,49.6,40.3,27.85,WNW,285,0.0,0.0,70,0.00,,---,0.00,VWS V14.01,2013-01-10 13:05:00,
2013-01-10 08:10:00,49.8,40.4,27.85,WNW,285,0.0,0.0,70,0.00,,---,0.00,VWS V14.01,2013-01-10 13:10:00,
2013-01-10 08:15:00,49.8,40.4,27.85,WNW,285,0.0,0.0,70,0.00,,---,0.00,VWS V14.01,2013-01-10 13:15:00,
2013-01-10 08:20:00,49.8,40.4,27.88,WNW,285,0.0,0.0,70,0.00,,---,0.00,VWS V14.01,2013-01-10 13:20:00,
2013-01-10 08:25:00,50.0,40.6,27.88,WNW,285,0.0,0.0,70,0.00,,---,0.00,VWS V14.01,2013-01-10 13:25:00,
2013-01-10 08:30:00,50.2,41.2,27.88,WNW,285,0.0,0.0,71,0.00,,---,0.00,VWS V14.01,2013-01-10 13:30:00,
2013-01-10 08:35:00,50.4,41.3,27.88,WNW,285,0.0,0.0,71,0.00,,---,0.00,VWS V14.01,2013-01-10 13:35:00,
2013-01-10 08:40:00,50.5,41.5,27.88,WNW,285,0.0,0.0,71,0.00,,---,0.00,VWS V14.01,2013-01-10 13:40:00,
2013-01-10 08:45:00,50.7,41.7,27.88,WNW,285,0.0,0.0,71,0.00,,---,0.00,VWS V14.01,2013-01-10 13:45:00,
2013-01-10 08:50:00,50.7,41.7,27.88,WNW,285,0.0,0.0,71,0.00,,---,0.00,VWS V14.01,2013-01-10 13:50:00,
2013-01-10 08:55:00,50.9,41.8,27.88,WNW,285,0.0,0.0,71,0.00,,---,0.00,VWS V14.01,2013-01-10 13:55:00,
2013-01-10 09:00:00,51.1,42.0,27.88,WNW,285,0.0,0.0,71,0.00,,---,0.00,VWS V14.01,2013-01-10 14:00:00,
2013-01-10 09:05:00,51.1,42.0,27.88,WNW,285,0.0,0.0,71,0.00,,---,0.00,VWS V14.01,2013-01-10 14:05:00,
2013-01-10 09:10:00,51.3,42.5,27.88,WNW,285,0.0,0.0,72,0.00,,---,0.00,VWS V14.01,2013-01-10 14:10:00,
2013-01-10 09:15:00,51.4,42.7,27.88,WNW,285,0.0,0.0,72,0.00,,---,0.00,VWS V14.01,2013-01-10 14:15:00,
2013-01-10 09:20:00,51.6,42.9,27.88,WNW,285,0.0,0.0,72,0.00,,---,0.00,VWS V14.01,2013-01-10 14:20:00,
2013-01-10 09:25:00,51.8,43.1,27.88,WNW,285,0.0,0.0,72,0.00,,---,0.00,VWS V14.01,2013-01-10 14:25:00,
2013-01-10 09:30:00,52.2,43.4,27.88,WNW,285,0.0,0.0,72,0.00,,---,0.00,VWS V14.01,2013-01-10 14:30:00,
2013-01-10 09:35:00,52.3,43.6,27.88,WNW,285,0.0,0.0,72,0.00,,---,0.00,VWS V14.01,2013-01-10 14:35:00,
2013-01-10 09:40:00,52.5,43.8,27.88,WNW,285,0.0,0.0,72,0.00,,---,0.00,VWS V14.01,2013-01-10 14:40:00,
2013-01-10 09:45:00,52.9,44.1,27.88,WNW,285,0.0,0.0,72,0.00,,---,0.00,VWS V14.01,2013-01-10 14:45:00,
2013-01-10 09:50:00,52.9,44.1,27.88,WNW,285,0.0,0.0,72,0.00,,---,0.00,VWS V14.01,2013-01-10 14:50:00,
2013-01-10 09:55:00,53.1,44.3,27.88,WNW,285,0.0,0.0,72,0.00,,---,0.00,VWS V14.01,2013-01-10 14:55:00,
2013-01-10 10:00:00,53.2,44.8,27.88,WNW,285,0.0,0.0,73,0.00,,---,0.00,VWS V14.01,2013-01-10 15:00:00,
2013-01-10 10:05:00,53.6,44.8,27.88,WNW,285,0.0,0.0,72,0.00,,---,0.00,VWS V14.01,2013-01-10 15:05:00,
2013-01-10 10:10:00,54.0,45.5,27.88,WNW,285,0.0,0.0,73,0.00,,---,0.00,VWS V14.01,2013-01-10 15:10:00,
2013-01-10 10:15:00,54.7,46.2,27.88,ESE,122,0.0,0.0,73,0.00,,---,0.00,VWS V14.01,2013-01-10 15:15:00,
2013-01-10 10:20:00,55.4,46.9,27.88,ESE,122,0.0,0.0,73,0.00,,---,0.00,VWS V14.01,2013-01-10 15:20:00,
2013-01-10 10:25:00,55.8,47.2,27.88,SE,134,0.0,2.2,73,0.00,,---,0.00,VWS V14.01,2013-01-10 15:25:00,
2013-01-10 10:30:00,55.9,47.4,27.88,ESE,120,0.0,2.2,73,0.00,,---,0.00,VWS V14.01,2013-01-10 15:30:00,
2013-01-10 10:35:00,56.7,48.5,27.88,East,85,5.4,5.4,74,0.00,,---,0.00,VWS V14.01,2013-01-10 15:35:00,
2013-01-10 10:40:00,57.2,49.0,27.88,East,85,3.1,3.6,74,0.00,,---,0.00,VWS V14.01,2013-01-10 15:40:00,
2013-01-10 10:45:00,57.9,49.7,27.88,East,92,5.4,6.3,74,0.00,,---,0.00,VWS V14.01,2013-01-10 15:45:00,
2013-01-10 10:50:00,58.8,50.6,27.88,ESE,114,2.7,4.9,74,0.00,,---,0.00,VWS V14.01,2013-01-10 15:50:00,
2013-01-10 10:55:00,60.1,52.1,27.88,SE,144,3.6,3.6,75,0.00,,---,0.00,VWS V14.01,2013-01-10 15:55:00,
2013-01-10 11:00:00,60.6,52.7,27.88,SE,126,0.0,2.2,75,0.00,,---,0.00,VWS V14.01,2013-01-10 16:00:00,
2013-01-10 11:05:00,61.0,52.3,27.88,ESE,117,2.7,3.6,73,0.00,,---,0.00,VWS V14.01,2013-01-10 16:05:00,
2013-01-10 11:10:00,61.3,52.2,27.88,NE,54,2.7,4.0,72,0.00,,---,0.00,VWS V14.01,2013-01-10 16:10:00,
2013-01-10 11:15:00,61.3,51.9,27.88,SSE,149,0.0,4.0,71,0.00,,---,0.00,VWS V14.01,2013-01-10 16:15:00,
2013-01-10 11:20:00,61.5,51.7,27.88,SE,131,4.0,4.0,70,0.00,,---,0.00,VWS V14.01,2013-01-10 16:20:00,
2013-01-10 11:25:00,61.5,50.9,27.88,SE,141,4.0,4.9,68,0.00,,---,0.00,VWS V14.01,2013-01-10 16:25:00,
2013-01-10 11:30:00,61.7,50.2,27.88,SSE,166,4.0,5.8,66,0.00,,---,0.00,VWS V14.01,2013-01-10 16:30:00,
2013-01-10 11:35:00,61.7,49.4,27.88,SE,129,2.7,3.1,64,0.00,,---,0.00,VWS V14.01,2013-01-10 16:35:00,
2013-01-10 11:40:00,62.1,49.3,27.88,SSE,147,2.2,4.0,63,0.00,,---,0.00,VWS V14.01,2013-01-10 16:40:00,
2013-01-10 11:45:00,62.6,48.1,27.88,East,89,2.7,3.1,59,0.00,,---,0.00,VWS V14.01,2013-01-10 16:45:00,
2013-01-10 11:50:00,62.8,45.9,27.88,ESE,123,2.7,2.7,54,0.00,,---,0.00,VWS V14.01,2013-01-10 16:50:00,
2013-01-10 11:55:00,63.0,44.0,27.88,ESE,117,3.1,5.4,50,0.00,,---,0.00,VWS V14.01,2013-01-10 16:55:00,
2013-01-10 12:00:00,63.0,42.4,27.88,ESE,111,3.6,3.6,47,0.00,,---,0.00,VWS V14.01,2013-01-10 17:00:00,
2013-01-10 12:05:00,63.0,41.9,27.85,ESE,120,0.0,3.1,46,0.00,,---,0.00,VWS V14.01,2013-01-10 17:05:00,
2013-01-10 12:10:00,63.0,40.7,27.85,East,91,0.0,0.0,44,0.00,,---,0.00,VWS V14.01,2013-01-10 17:10:00,
2013-01-10 12:15:00,62.8,40.0,27.85,SSE,157,4.0,4.0,43,0.00,,---,0.00,VWS V14.01,2013-01-10 17:15:00,
2013-01-10 12:20:00,62.6,38.0,27.85,East,79,3.1,3.1,40,0.00,,---,0.00,VWS V14.01,2013-01-10 17:20:00,
2013-01-10 12:25:00,62.4,37.2,27.85,NE,51,0.0,4.9,39,0.00,,---,0.00,VWS V14.01,2013-01-10 17:25:00,
2013-01-10 12:30:00,62.2,36.3,27.85,ESE,104,0.0,3.6,38,0.00,,---,0.00,VWS V14.01,2013-01-10 17:30:00,
2013-01-10 12:35:00,62.2,35.7,27.85,East,95,2.7,4.0,37,0.00,,---,0.00,VWS V14.01,2013-01-10 17:35:00,
2013-01-10 12:40:00,62.4,35.1,27.85,ESE,112,0.0,0.0,36,0.00,,---,0.00,VWS V14.01,2013-01-10 17:40:00,
2013-01-10 12:45:00,63.0,34.2,27.85,East,84,5.8,5.8,34,0.00,,---,0.00,VWS V14.01,2013-01-10 17:45:00,
2013-01-10 12:50:00,63.1,33.6,27.82,East,81,6.3,6.3,33,0.00,,---,0.00,VWS V14.01,2013-01-10 17:50:00,
2013-01-10 12:55:00,63.3,32.2,27.82,SSE,151,7.6,7.6,31,0.00,,---,0.00,VWS V14.01,2013-01-10 17:55:00,
2013-01-10 13:00:00,63.7,29.1,27.82,ESE,113,4.0,4.0,27,0.00,,---,0.00,VWS V14.01,2013-01-10 18:00:00,
2013-01-10 13:05:00,64.2,29.6,27.82,South,175,4.9,4.9,27,0.00,,---,0.00,VWS V14.01,2013-01-10 18:05:00,
2013-01-10 13:10:00,64.6,28.0,27.82,ESE,112,4.0,6.3,25,0.00,,---,0.00,VWS V14.01,2013-01-10 18:10:00,
2013-01-10 13:15:00,64.8,27.2,27.82,SSE,150,0.0,3.1,24,0.00,,---,0.00,VWS V14.01,2013-01-10 18:15:00,
2013-01-10 13:20:00,64.8,26.1,27.82,ESE,111,3.6,4.9,23,0.00,,---,0.00,VWS V14.01,2013-01-10 18:20:00,
2013-01-10 13:25:00,64.6,26.0,27.82,NE,55,2.7,3.1,23,0.00,,---,0.00,VWS V14.01,2013-01-10 18:25:00,
2013-01-10 13:30:00,64.6,26.0,27.82,ESE,120,3.6,3.6,23,0.00,,---,0.00,VWS V14.01,2013-01-10 18:30:00,
2013-01-10 13:35:00,64.4,25.8,27.82,NE,43,5.4,5.4,23,0.00,,---,0.00,VWS V14.01,2013-01-10 18:35:00,
2013-01-10 13:40:00,64.6,26.0,27.82,East,100,2.7,2.7,23,0.00,,---,0.00,VWS V14.01,2013-01-10 18:40:00,
2013-01-10 13:45:00,65.1,26.4,27.82,SE,143,7.6,7.6,23,0.00,,---,0.00,VWS V14.01,2013-01-10 18:45:00,
2013-01-10 13:50:00,65.8,21.2,27.79,East,79,5.4,6.3,18,0.00,,---,0.00,VWS V14.01,2013-01-10 18:50:00,
2013-01-10 13:55:00,66.6,17.5,27.79,East,79,3.1,4.0,15,0.00,,---,0.00,VWS V14.01,2013-01-10 18:55:00,
2013-01-10 14:00:00,66.9,12.7,27.79,East,99,5.4,5.4,12,0.00,,---,0.00,VWS V14.01,2013-01-10 19:00:00,
2013-01-10 14:05:00,66.7,8.5,27.79,SSE,160,2.7,2.7,10,0.00,,---,0.00,VWS V14.01,2013-01-10 19:05:00,
2013-01-10 14:10:00,66.7,8.5,27.79,SE,131,2.7,3.6,10,0.00,,---,0.00,VWS V14.01,2013-01-10 19:10:00,
2013-01-10 14:15:00,66.9,8.6,27.79,NE,39,6.3,6.3,10,0.00,,---,0.00,VWS V14.01,2013-01-10 19:15:00,
2013-01-10 14:20:00,66.6,8.3,27.79,East,79,4.9,4.9,10,0.00,,---,0.00,VWS V14.01,2013-01-10 19:20:00,
2013-01-10 14:25:00,66.6,8.3,27.79,ESE,116,5.4,5.4,10,0.00,,---,0.00,VWS V14.01,2013-01-10 19:25:00,
2013-01-10 14:30:00,66.6,0.6,27.79,East,97,4.0,4.0,7,0.00,,---,0.00,VWS V14.01,2013-01-10 19:30:00,
2013-01-10 14:35:00,66.2,0.3,27.79,NE,47,3.1,3.1,7,0.00,,---,0.00,VWS V14.01,2013-01-10 19:35:00,
2013-01-10 14:40:00,65.8,2.9,27.79,ENE,58,6.3,8.7,8,0.00,,---,0.00,VWS V14.01,2013-01-10 19:40:00,
2013-01-10 14:45:00,65.7,2.8,27.79,ESE,115,2.7,4.0,8,0.00,,---,0.00,VWS V14.01,2013-01-10 19:45:00,
2013-01-10 14:50:00,65.7,2.8,27.79,ENE,66,2.7,3.1,8,0.00,,---,0.00,VWS V14.01,2013-01-10 19:50:00,
2013-01-10 14:55:00,65.7,2.8,27.79,ESE,121,4.0,4.9,8,0.00,,---,0.00,VWS V14.01,2013-01-10 19:55:00,
2013-01-10 15:00:00,66.0,3.0,27.79,East,100,0.0,2.2,8,0.00,,---,0.00,VWS V14.01,2013-01-10 20:00:00,
2013-01-10 15:05:00,66.6,0.6,27.79,ENE,71,3.6,5.4,7,0.00,,---,0.00,VWS V14.01,2013-01-10 20:05:00,
2013-01-10 15:10:00,66.6,0.6,27.79,SE,128,4.9,4.9,7,0.00,,---,0.00,VWS V14.01,2013-01-10 20:10:00,
2013-01-10 15:15:00,66.2,0.3,27.79,East,88,4.0,4.9,7,0.00,,---,0.00,VWS V14.01,2013-01-10 20:15:00,
2013-01-10 15:20:00,66.4,0.4,27.79,East,83,3.1,5.8,7,0.00,,---,0.00,VWS V14.01,2013-01-10 20:20:00,
2013-01-10 15:25:00,66.9,0.8,27.79,East,87,5.4,5.4,7,0.00,,---,0.00,VWS V14.01,2013-01-10 20:25:00,
2013-01-10 15:30:00,66.9,0.8,27.79,East,86,4.0,4.0,7,0.00,,---,0.00,VWS V14.01,2013-01-10 20:30:00,
2013-01-10 15:35:00,66.7,0.7,27.79,SE,131,3.6,3.6,7,0.00,,---,0.00,VWS V14.01,2013-01-10 20:35:00,
2013-01-10 15:40:00,66.6,0.6,27.79,ENE,60,3.6,8.1,7,0.00,,---,0.00,VWS V14.01,2013-01-10 20:40:00,
2013-01-10 15:45:00,65.8,-7.0,27.79,ESE,103,6.3,7.2,5,0.00,,---,0.00,VWS V14.01,2013-01-10 20:45:00,
2013-01-10 15:50:00,64.8,2.1,27.79,NE,50,3.1,3.1,8,0.00,,---,0.00,VWS V14.01,2013-01-10 20:50:00,
2013-01-10 15:55:00,63.9,1.4,27.79,East,101,3.1,4.9,8,0.00,,---,0.00,VWS V14.01,2013-01-10 20:55:00,
2013-01-10 16:00:00,63.1,0.9,27.79,NE,51,3.1,3.1,8,0.00,,---,0.00,VWS V14.01,2013-01-10 21:00:00,
2013-01-10 16:05:00,62.4,2.9,27.79,East,95,3.1,4.0,9,0.00,,---,0.00,VWS V14.01,2013-01-10 21:05:00,
2013-01-10 16:10:00,62.1,7.0,27.79,East,79,3.6,4.9,11,0.00,,---,0.00,VWS V14.01,2013-01-10 21:10:00,
2013-01-10 16:15:00,61.9,6.8,27.79,SE,127,3.6,3.6,11,0.00,,---,0.00,VWS V14.01,2013-01-10 21:15:00,
2013-01-10 16:20:00,61.7,12.1,27.79,ESE,114,0.0,4.0,14,0.00,,---,0.00,VWS V14.01,2013-01-10 21:20:00,
2013-01-10 16:25:00,61.7,12.1,27.79,NE,51,3.1,4.0,14,0.00,,---,0.00,VWS V14.01,2013-01-10 21:25:00,
2013-01-10 16:30:00,61.5,11.9,27.79,ENE,63,6.3,6.3,14,0.00,,---,0.00,VWS V14.01,2013-01-10 21:30:00,
2013-01-10 16:35:00,61.3,11.8,27.79,ENE,71,3.6,5.8,14,0.00,,---,0.00,VWS V14.01,2013-01-10 21:35:00,
2013-01-10 16:40:00,61.0,11.5,27.79,ENE,74,3.6,3.6,14,0.00,,---,0.00,VWS V14.01,2013-01-10 21:40:00,
2013-01-10 16:45:00,60.6,15.6,27.79,East,84,3.1,6.3,17,0.00,,---,0.00,VWS V14.01,2013-01-10 21:45:00,
2013-01-10 16:50:00,60.4,15.4,27.82,ESE,109,2.2,4.0,17,0.00,,---,0.00,VWS V14.01,2013-01-10 21:50:00,
2013-01-10 16:55:00,60.1,17.7,27.82,WNW,285,3.6,5.4,19,0.00,,---,0.00,VWS V14.01,2013-01-10 21:55:00,
2013-01-10 17:00:00,59.7,17.4,27.82,NW,305,2.7,2.7,19,0.00,,---,0.00,VWS V14.01,2013-01-10 22:00:00,
2013-01-10 17:05:00,59.5,17.3,27.82,SE,135,4.0,4.0,19,0.00,,---,0.00,VWS V14.01,2013-01-10 22:05:00,
2013-01-10 17:10:00,59.2,20.4,27.82,ENE,62,4.0,5.4,22,0.00,,---,0.00,VWS V14.01,2013-01-10 22:10:00,
2013-01-10 17:15:00,58.8,22.1,27.82,SSE,166,2.7,2.7,24,0.00,,---,0.00,VWS V14.01,2013-01-10 22:15:00,
2013-01-10 17:20:00,58.5,22.8,27.82,South,186,2.7,3.1,25,0.00,,---,0.00,VWS V14.01,2013-01-10 22:20:00,
2013-01-10 17:25:00,58.3,22.6,27.82,ESE,106,2.2,2.7,25,0.00,,---,0.00,VWS V14.01,2013-01-10 22:25:00,
2013-01-10 17:30:00,58.1,22.5,27.82,ESE,106,0.0,0.0,25,0.00,,---,0.00,VWS V14.01,2013-01-10 22:30:00,
2013-01-10 17:35:00,57.9,22.3,27.82,ESE,105,4.0,4.0,25,0.00,,---,0.00,VWS V14.01,2013-01-10 22:35:00,
2013-01-10 17:40:00,57.6,23.0,27.82,SE,134,0.0,2.2,26,0.00,,---,0.00,VWS V14.01,2013-01-10 22:40:00,
2013-01-10 17:45:00,57.4,22.8,27.82,ESE,120,3.1,4.0,26,0.00,,---,0.00,VWS V14.01,2013-01-10 22:45:00,
2013-01-10 17:51:00,57.4,23.7,27.82,ENE,63,5.8,8.3,27,0.00,,---,0.00,VWS V14.01,2013-01-10 22:51:00,
2013-01-10 17:56:00,57.6,23.9,27.82,NE,46,7.6,7.6,27,0.00,,---,0.00,VWS V14.01,2013-01-10 22:56:00,
2013-01-10 18:01:00,57.4,24.6,27.82,East,94,5.4,5.4,28,0.00,,---,0.00,VWS V14.01,2013-01-10 23:01:00,
2013-01-10 18:06:00,57.4,24.6,27.82,ESE,120,2.2,3.6,28,0.00,,---,0.00,VWS V14.01,2013-01-10 23:06:00,
2013-01-10 18:11:00,57.4,24.6,27.82,ENE,73,0.0,3.6,28,0.00,,---,0.00,VWS V14.01,2013-01-10 23:11:00,
2013-01-10 18:16:00,57.2,24.4,27.82,SSE,152,3.6,3.6,28,0.00,,---,0.00,VWS V14.01,2013-01-10 23:16:00,
2013-01-10 18:21:00,57.2,24.4,27.82,NE,54,2.7,4.0,28,0.00,,---,0.00,VWS V14.01,2013-01-10 23:21:00,
2013-01-10 18:26:00,57.0,25.1,27.82,ESE,116,2.7,3.6,29,0.00,,---,0.00,VWS V14.01,2013-01-10 23:26:00,
2013-01-10 18:31:00,57.0,25.1,27.82,ESE,118,2.2,4.0,29,0.00,,---,0.00,VWS V14.01,2013-01-10 23:31:00,
2013-01-10 18:36:00,57.0,25.1,27.79,SW,222,2.2,2.2,29,0.00,,---,0.00,VWS V14.01,2013-01-10 23:36:00,
2013-01-10 18:41:00,56.8,24.9,27.79,SE,129,2.7,2.7,29,0.00,,---,0.00,VWS V14.01,2013-01-10 23:41:00,
2013-01-10 18:46:00,56.8,25.8,27.79,NE,55,0.0,3.6,30,0.00,,---,0.00,VWS V14.01,2013-01-10 23:46:00,
2013-01-10 18:51:00,56.8,25.8,27.82,SW,228,2.7,4.0,30,0.00,,---,0.00,VWS V14.01,2013-01-10 23:51:00,
2013-01-10 18:56:00,56.8,25.8,27.82,SE,131,2.7,3.1,30,0.00,,---,0.00,VWS V14.01,2013-01-10 23:56:00,
2013-01-10 19:01:00,56.8,25.8,27.82,NNE,27,0.0,4.0,30,0.00,,---,0.00,VWS V14.01,2013-01-11 00:01:00,
2013-01-10 19:06:00,56.8,25.8,27.82,NE,37,2.7,5.8,30,0.00,,---,0.00,VWS V14.01,2013-01-11 00:06:00,
2013-01-10 19:11:00,56.8,26.5,27.82,SE,145,2.7,3.1,31,0.00,,---,0.00,VWS V14.01,2013-01-11 00:11:00,
2013-01-10 19:16:00,56.7,25.6,27.82,SE,129,2.7,2.7,30,0.00,,---,0.00,VWS V14.01,2013-01-11 00:16:00,
2013-01-10 19:21:00,56.7,26.4,27.79,NW,319,2.7,4.0,31,0.00,,---,0.00,VWS V14.01,2013-01-11 00:21:00,
2013-01-10 19:26:00,56.7,25.6,27.79,SSE,166,0.0,3.6,30,0.00,,---,0.00,VWS V14.01,2013-01-11 00:26:00,
2013-01-10 19:31:00,56.7,25.6,27.79,ESE,123,0.0,0.0,30,0.00,,---,0.00,VWS V14.01,2013-01-11 00:31:00,
2013-01-10 19:36:00,56.7,25.6,27.79,East,99,4.0,4.5,30,0.00,,---,0.00,VWS V14.01,2013-01-11 00:36:00,
2013-01-10 19:41:00,56.5,25.4,27.79,SE,133,4.0,4.0,30,0.00,,---,0.00,VWS V14.01,2013-01-11 00:41:00,
2013-01-10 19:46:00,56.5,25.4,27.79,SE,138,2.2,2.7,30,0.00,,---,0.00,VWS V14.01,2013-01-11 00:46:00,
2013-01-10 19:51:00,56.5,24.6,27.79,SE,140,0.0,3.1,29,0.00,,---,0.00,VWS V14.01,2013-01-11 00:51:00,
2013-01-10 19:56:00,56.5,24.6,27.79,SE,139,2.7,4.0,29,0.00,,---,0.00,VWS V14.01,2013-01-11 00:56:00,
2013-01-10 20:01:00,56.5,24.6,27.79,WNW,288,0.0,0.0,29,0.00,,---,0.00,VWS V14.01,2013-01-11 01:01:00,
2013-01-10 20:06:00,56.5,24.6,27.79,NW,324,2.7,3.1,29,0.00,,---,0.00,VWS V14.01,2013-01-11 01:06:00,
2013-01-10 20:11:00,56.5,24.6,27.79,SE,126,3.1,3.1,29,0.00,,---,0.00,VWS V14.01,2013-01-11 01:11:00,
2013-01-10 20:16:00,56.5,23.8,27.79,SW,222,4.9,5.4,28,0.00,,---,0.00,VWS V14.01,2013-01-11 01:16:00,
2013-01-10 20:21:00,56.3,23.6,27.79,ESE,108,2.7,2.7,28,0.00,,---,0.00,VWS V14.01,2013-01-11 01:21:00,
2013-01-10 20:26:00,56.3,23.6,27.79,ENE,58,4.5,5.8,28,0.00,,---,0.00,VWS V14.01,2013-01-11 01:26:00,
2013-01-10 20:31:00,56.3,22.8,27.79,SW,216,4.0,4.9,27,0.00,,---,0.00,VWS V14.01,2013-01-11 01:31:00,
2013-01-10 20:36:00,56.3,22.8,27.79,SSE,150,2.7,3.6,27,0.00,,---,0.00,VWS V14.01,2013-01-11 01:36:00,
2013-01-10 20:41:00,56.3,22.8,27.79,SE,124,2.2,2.7,27,0.00,,---,0.00,VWS V14.01,2013-01-11 01:41:00,
2013-01-10 20:46:00,56.1,22.6,27.79,South,179,3.1,7.6,27,0.00,,---,0.00,VWS V14.01,2013-01-11 01:46:00,
2013-01-10 20:51:00,56.1,22.6,27.79,South,172,2.2,5.8,27,0.00,,---,0.00,VWS V14.01,2013-01-11 01:51:00,
2013-01-10 20:56:00,56.1,22.6,27.79,ESE,121,3.1,4.5,27,0.00,,---,0.00,VWS V14.01,2013-01-11 01:56:00,
2013-01-10 21:01:00,56.1,22.6,27.79,West,265,2.2,2.2,27,0.00,,---,0.00,VWS V14.01,2013-01-11 02:01:00,
2013-01-10 21:06:00,56.1,22.6,27.79,SE,141,0.0,3.1,27,0.00,,---,0.00,VWS V14.01,2013-01-11 02:06:00,
2013-01-10 21:11:00,55.9,22.5,27.79,ESE,105,2.2,4.0,27,0.00,,---,0.00,VWS V14.01,2013-01-11 02:11:00,
2013-01-10 21:16:00,55.9,22.5,27.79,SE,125,6.3,6.3,27,0.00,,---,0.00,VWS V14.01,2013-01-11 02:16:00,
2013-01-10 21:21:00,55.9,21.6,27.79,ESE,104,5.4,5.4,26,0.00,,---,0.00,VWS V14.01,2013-01-11 02:21:00,
2013-01-10 21:26:00,55.9,21.6,27.79,East,85,2.2,2.2,26,0.00,,---,0.00,VWS V14.01,2013-01-11 02:26:00,
2013-01-10 21:31:00,55.8,21.4,27.79,West,270,3.6,3.6,26,0.00,,---,0.00,VWS V14.01,2013-01-11 02:31:00,
2013-01-10 21:36:00,55.8,21.4,27.79,SE,126,3.1,3.6,26,0.00,,---,0.00,VWS V14.01,2013-01-11 02:36:00,
2013-01-10 21:41:00,55.8,21.4,27.79,SE,137,4.0,4.0,26,0.00,,---,0.00,VWS V14.01,2013-01-11 02:41:00,
2013-01-10 21:46:00,55.8,21.4,27.79,ESE,102,4.5,4.5,26,0.00,,---,0.00,VWS V14.01,2013-01-11 02:46:00,
2013-01-10 21:51:00,55.6,20.3,27.79,ESE,121,2.7,5.4,25,0.00,,---,0.00,VWS V14.01,2013-01-11 02:51:00,
2013-01-10 21:56:00,55.6,20.3,27.79,SE,127,3.1,3.6,25,0.00,,---,0.00,VWS V14.01,2013-01-11 02:56:00,
2013-01-10 22:01:00,55.6,20.3,27.79,ESE,115,0.0,2.2,25,0.00,,---,0.00,VWS V14.01,2013-01-11 03:01:00,
2013-01-10 22:06:00,55.4,20.2,27.76,ESE,104,3.6,7.6,25,0.00,,---,0.00,VWS V14.01,2013-01-11 03:06:00,
2013-01-10 22:11:00,55.4,20.2,27.76,East,100,4.0,4.0,25,0.00,,---,0.00,VWS V14.01,2013-01-11 03:11:00,
2013-01-10 22:16:00,55.2,21.0,27.76,ENE,69,0.0,3.1,26,0.00,,---,0.00,VWS V14.01,2013-01-11 03:16:00,
2013-01-10 22:21:00,55.2,21.0,27.76,West,276,4.9,4.9,26,0.00,,---,0.00,VWS V14.01,2013-01-11 03:21:00,
2013-01-10 22:26:00,54.9,20.6,27.76,ENE,57,3.1,3.1,26,0.00,,---,0.00,VWS V14.01,2013-01-11 03:26:00,
2013-01-10 22:31:00,54.7,21.4,27.76,ESE,113,3.1,3.6,27,0.00,,---,0.00,VWS V14.01,2013-01-11 03:31:00,
2013-01-10 22:36:00,54.5,21.2,27.76,SW,214,2.7,2.7,27,0.00,,---,0.00,VWS V14.01,2013-01-11 03:36:00,
2013-01-10 22:41:00,54.3,21.1,27.76,NE,55,2.7,3.1,27,0.00,,---,0.00,VWS V14.01,2013-01-11 03:41:00,
2013-01-10 22:46:00,54.1,21.8,27.76,East,80,3.1,3.1,28,0.00,,---,0.00,VWS V14.01,2013-01-11 03:46:00,
2013-01-10 22:51:00,54.0,22.5,27.76,SE,126,3.1,3.1,29,0.00,,---,0.00,VWS V14.01,2013-01-11 03:51:00,
2013-01-10 22:56:00,53.8,23.1,27.76,ENE,70,2.2,4.9,30,0.00,,---,0.00,VWS V14.01,2013-01-11 03:56:00,
2013-01-10 23:01:00,53.4,24.3,27.76,East,100,5.4,5.4,32,0.00,,---,0.00,VWS V14.01,2013-01-11 04:01:00,
2013-01-10 23:06:00,53.1,26.1,27.76,East,82,5.8,5.8,35,0.00,,---,0.00,VWS V14.01,2013-01-11 04:06:00,
2013-01-10 23:11:00,52.7,26.5,27.76,ENE,65,3.6,4.9,36,0.00,,---,0.00,VWS V14.01,2013-01-11 04:11:00,
2013-01-10 23:16:00,52.5,26.4,27.76,SE,134,4.9,4.9,36,0.00,,---,0.00,VWS V14.01,2013-01-11 04:16:00,
2013-01-10 23:21:00,52.2,26.7,27.73,East,95,2.7,2.7,37,0.00,,---,0.00,VWS V14.01,2013-01-11 04:21:00,
2013-01-10 23:26:00,52.0,26.5,27.73,NE,44,4.0,4.0,37,0.00,,---,0.00,VWS V14.01,2013-01-11 04:26:00,
2013-01-10 23:31:00,51.8,27.0,27.73,East,89,4.5,4.5,38,0.00,,---,0.00,VWS V14.01,2013-01-11 04:31:00,
2013-01-10 23:36:00,51.4,27.9,27.73,SE,136,3.6,5.4,40,0.00,,---,0.00,VWS V14.01,2013-01-11 04:36:00,
2013-01-10 23:41:00,51.3,28.4,27.73,NNE,32,2.7,3.6,41,0.00,,---,0.00,VWS V14.01,2013-01-11 04:41:00,
2013-01-10 23:46:00,51.1,28.2,27.73,SSW,192,3.1,3.1,41,0.00,,---,0.00,VWS V14.01,2013-01-11 04:46:00,
2013-01-10 23:51:00,50.9,28.6,27.76,ESE,109,4.9,4.9,42,0.00,,---,0.00,VWS V14.01,2013-01-11 04:51:00,
2013-01-10 23:56:00,50.7,29.1,27.76,ENE,74,2.7,3.6,43,0.00,,---,0.00,VWS V14.01,2013-01-11 04:56:00,